This is the latest recevied weather packets stored in our database for station/object KF4PPJ. If no packets are shown the sender has not sent any weather packets the latest 1 day(s).
| Time | Temp. | Humidity | Pressure | Rain* | Wind** | Luminosity | Snow |
|---|---|---|---|---|---|---|---|
| 1777994653 | 12.78° C | 84% | 1018.7 hPa | 0 mm | 0.45 m/s, 180° | 33 W/m² | - |
| 1777994347 | 12.78° C | 84% | 1018.8 hPa | 0 mm | 0.45 m/s, 161° | 32 W/m² | - |
| 1777994044 | 12.78° C | 84% | 1018.7 hPa | 0 mm | 0 m/s | 31 W/m² | - |
| 1777993742 | 12.78° C | 84% | 1018.7 hPa | 0 mm | 0.89 m/s, 195° | 32 W/m² | - |
| 1777993439 | 12.78° C | 84% | 1018.7 hPa | 0 mm | 1.34 m/s, 196° | 28 W/m² | - |
| 1777993138 | 12.78° C | 85% | 1018.4 hPa | 0 mm | 0.45 m/s, 159° | 26 W/m² | - |
| 1777992836 | 12.78° C | 85% | 1018.5 hPa | 0 mm | 1.34 m/s, 205° | 25 W/m² | - |
| 1777992534 | 12.78° C | 85% | 1018.4 hPa | 0 mm | 0.89 m/s, 200° | 24 W/m² | - |
| 1777992232 | 12.78° C | 85% | 1018.3 hPa | 0 mm | 0.89 m/s, 197° | 22 W/m² | - |
| 1777991929 | 12.78° C | 85% | 1018.4 hPa | 0 mm | 0.45 m/s, 170° | 19 W/m² | - |
| 1777991627 | 12.78° C | 85% | 1018.2 hPa | 0 mm | 1.34 m/s, 176° | 17 W/m² | - |
| 1777991323 | 12.78° C | 85% | 1018.1 hPa | 0 mm | 0.89 m/s, 146° | 16 W/m² | - |
| 1777991021 | 12.78° C | 85% | 1018.1 hPa | 0 mm | 2.24 m/s, 185° | 15 W/m² | - |
| 1777990718 | 12.78° C | 85% | 1018.2 hPa | 0 mm | 0.89 m/s, 162° | 14 W/m² | - |
| 1777990415 | 12.78° C | 85% | 1018.2 hPa | 0 mm | 0.89 m/s, 166° | 12 W/m² | - |
| 1777990107 | 12.78° C | 85% | 1018.1 hPa | 0 mm | 0.45 m/s, 211° | 12 W/m² | - |
| 1777989803 | 12.78° C | 85% | 1017.8 hPa | 0 mm | 0.89 m/s, 188° | 10 W/m² | - |
| 1777989500 | 12.78° C | 86% | 1017.8 hPa | 0 mm | 0.45 m/s, 207° | 9 W/m² | - |
| 1777989196 | 12.78° C | 86% | 1017.8 hPa | 0 mm | 1.34 m/s, 181° | 8 W/m² | - |
| 1777988893 | 12.78° C | 86% | 1017.7 hPa | 0 mm | 1.34 m/s, 173° | 7 W/m² | - |
| 1777988590 | 12.78° C | 86% | 1017.6 hPa | 0 mm | 0.45 m/s, 162° | 6 W/m² | - |
| 1777988286 | 12.78° C | 86% | 1017.7 hPa | 0 mm | 0.45 m/s, 176° | 6 W/m² | - |
| 1777987983 | 12.78° C | 86% | 1017.6 hPa | 0 mm | 0 m/s | 5 W/m² | - |
| 1777987678 | 12.78° C | 86% | 1017.6 hPa | 0 mm | 0.89 m/s, 178° | 4 W/m² | - |
| 1777987375 | 12.78° C | 86% | 1017.8 hPa | 0 mm | 0.45 m/s, 162° | 2 W/m² | - |
* Rain latest hour (hover to see other rain measurements)
** Current wind speed in m/s (hover to see current wind gust speed)